{"data":{"norad_id":68980,"intl_designator":"2026-100A","name":"PEARL-1B","alt_names":[],"object_type":"PAYLOAD","status":"ACTIVE","operator":null,"country":"ROC","launch_date":"2026-05-03","launch_site_code":"AFWTR","launch_vehicle":null,"mission":null,"orbit_class":"UNKNOWN","rcs_meters":null,"size_class":null,"mass_kg":null,"dimensions":null,"purposes":[],"wikipedia_slug":null,"has_3d_model":false,"image_url":null,"decayed_at":null,"tle_current":{"epoch":"2026-05-25T03:38:23.169120Z","epoch_age_seconds":59191,"freshness":"FRESH","line1":"1 68980U 26100A   26145.15165705  .00001591  00000+0  16869-3 0  9996","line2":"2 68980  97.7390  42.9944 0006180 213.7569 146.3256 14.90461576  3258","mean_motion":14.90461576,"eccentricity":0.000618,"inclination_deg":97.739,"raan_deg":42.9944,"arg_perigee_deg":213.7569,"mean_anomaly_deg":146.3256,"bstar":0.00016869,"rev_number":325,"period_min":96.614365857359,"perigee_km":592.1850039227199,"apogee_km":600.80564947852,"semimajor_km":6974.6323267006,"source":"CELESTRAK","updated_at":"2026-05-25T13:38:08.806556Z"}}}